When you browse on this site, cookies collect data to enhance your experience and personalize the content and advertising you see.
Visit our Privacy Policy to learn more. By continuing to use the site, you agree to this use of cookies and data.
  • In Hungary
  • List of Countries
  • For 7 days
  • Water Temperature
  • Weather Map
  • News
  • Weather Widgets
  • user-avatar
    Login

    Hourly Weather Essex

    Today, 21 November, Thursday

    Time Temperature Precipitation Wind Pressure Humidity
    00:00 +5°C° 0 mm 5 mps 766 mmHg 74%
    01:00 +3°C° 0 mm 5 mps 766 mmHg 76%
    02:00 +3°C° 0 mm 5 mps 766 mmHg 76%
    03:00 +4°C° 0 mm 4 mps 766 mmHg 76%
    04:00 +3°C° 0 mm 4 mps 766 mmHg 76%
    05:00 +3°C° 0 mm 4 mps 767 mmHg 77%
    06:00 +3°C° 0 mm 3 mps 767 mmHg 79%
    07:00 +2°C° 0 mm 3 mps 767 mmHg 80%
    08:00 +5°C° 0 mm 2 mps 767 mmHg 74%
    09:00 +6°C° 0 mm 2 mps 767 mmHg 68%
    10:00 +7°C° 0 mm 2 mps 767 mmHg 62%
    11:00 +9°C° 0 mm 1 mps 766 mmHg 57%
    12:00 +11°C° 0 mm 1 mps 766 mmHg 53%
    13:00 +12°C° 0 mm 1 mps 765 mmHg 48%
    14:00 +11°C° 0 mm 1 mps 764 mmHg 51%
    15:00 +10°C° 0 mm 2 mps 764 mmHg 54%
    16:00 +10°C° 0 mm 2 mps 763 mmHg 56%
    17:00 +10°C° 0 mm 3 mps 763 mmHg 59%
    18:00 +9°C° 0 mm 3 mps 763 mmHg 61%
    19:00 +9°C° 0 mm 3 mps 763 mmHg 64%
    20:00 +8°C° 0 mm 4 mps 762 mmHg 65%
    21:00 +8°C° 0 mm 4 mps 762 mmHg 67%
    22:00 +8°C° 0 mm 5 mps 761 mmHg 69%
    23:00 +8°C° 0 mm 5 mps 761 mmHg 69%

    Tomorrow, 22 November, Friday

    Time Temperature Precipitation Wind Pressure Humidity
    00:00 +8°C° 0 mm 5 mps 760 mmHg 70%
    01:00 +8°C° 0 mm 5 mps 760 mmHg 71%
    02:00 +8°C° 0 mm 4 mps 759 mmHg 73%
    03:00 +8°C° 0 mm 4 mps 759 mmHg 75%
    04:00 +8°C° 0 mm 4 mps 758 mmHg 77%
    05:00 +8°C° 0 mm 4 mps 758 mmHg 77%
    06:00 +8°C° 0 mm 4 mps 758 mmHg 78%
    07:00 +8°C° 0 mm 4 mps 757 mmHg 78%
    08:00 +10°C° 0 mm 4 mps 757 mmHg 76%
    09:00 +11°C° 0 mm 4 mps 757 mmHg 73%
    10:00 +12°C° 0 mm 4 mps 756 mmHg 71%
    11:00 +12°C° 0.8 mm 4 mps 756 mmHg 75%
    12:00 +10°C° 0.8 mm 5 mps 756 mmHg 80%
    13:00 +10°C° 0.8 mm 5 mps 756 mmHg 84%
    14:00 +10°C° 0 mm 5 mps 757 mmHg 76%
    15:00 +10°C° 0 mm 5 mps 757 mmHg 68%
    16:00 +9°C° 0 mm 5 mps 758 mmHg 60%
    17:00 +8°C° 0 mm 5 mps 758 mmHg 58%
    18:00 +7°C° 0 mm 5 mps 759 mmHg 57%
    19:00 +6°C° 0 mm 5 mps 760 mmHg 56%
    20:00 +5°C° 0 mm 5 mps 761 mmHg 56%
    21:00 +3°C° 0 mm 5 mps 761 mmHg 57%
    22:00 +3°C° 0 mm 5 mps 762 mmHg 58%
    23:00 +3°C° 0 mm 4 mps 762 mmHg 59%

    Day after tomorrow, 23 November, Saturday

    Time Temperature Precipitation Wind Pressure Humidity
    00:00 +3°C° 0 mm 4 mps 762 mmHg 60%
    01:00 +1°C° 0 mm 4 mps 762 mmHg 62%
    02:00 +1°C° 0 mm 4 mps 762 mmHg 62%
    03:00 +2°C° 0 mm 3 mps 762 mmHg 63%
    04:00 +1°C° 0 mm 3 mps 762 mmHg 63%
    05:00 +2°C° 0 mm 2 mps 762 mmHg 63%
    06:00 +2°C° 0 mm 2 mps 762 mmHg 63%
    07:00 +2°C° 0 mm 2 mps 762 mmHg 64%
    08:00 +4°C° 0 mm 1 mps 762 mmHg 58%
    09:00 +5°C° 0 mm 1 mps 762 mmHg 52%
    10:00 +6°C° 0 mm 1 mps 762 mmHg 46%
    11:00 +7°C° 0 mm 1 mps 761 mmHg 44%
    12:00 +7°C° 0 mm 2 mps 760 mmHg 42%
    13:00 +7°C° 0 mm 2 mps 760 mmHg 40%
    14:00 +7°C° 0 mm 2 mps 759 mmHg 44%
    15:00 +7°C° 0 mm 3 mps 759 mmHg 49%
    16:00 +5°C° 0 mm 3 mps 758 mmHg 53%
    17:00 +5°C° 0.9 mm 4 mps 757 mmHg 64%
    18:00 +4°C° 0.9 mm 4 mps 757 mmHg 75%
    19:00 +3°C° 0.9 mm 5 mps 756 mmHg 86%
    20:00 +4°C° 1.5 mm 4 mps 755 mmHg 89%
    21:00 +4°C° 1.5 mm 4 mps 754 mmHg 92%
    22:00 +5°C° 1.5 mm 3 mps 754 mmHg 95%
    23:00 +5°C° 1.2 mm 3 mps 753 mmHg 96%

    24 November, Sunday

    Time Temperature Precipitation Wind Pressure Humidity
    00:00 +6°C° 1.2 mm 2 mps 752 mmHg 97%
    01:00 +7°C° 1.2 mm 2 mps 750 mmHg 98%
    02:00 +7°C° 0.9 mm 2 mps 750 mmHg 98%
    03:00 +7°C° 0.9 mm 2 mps 749 mmHg 97%
    04:00 +9°C° 0.9 mm 1 mps 749 mmHg 97%
    05:00 +8°C° 0 mm 2 mps 749 mmHg 95%
    06:00 +8°C° 0 mm 2 mps 749 mmHg 93%
    07:00 +8°C° 0 mm 2 mps 749 mmHg 91%
    08:00 +9°C° 0.1 mm 3 mps 749 mmHg 84%
    09:00 +8°C° 0.1 mm 4 mps 749 mmHg 78%
    10:00 +8°C° 0.1 mm 4 mps 750 mmHg 72%
    11:00 +8°C° 0 mm 5 mps 750 mmHg 68%
    12:00 +8°C° 0 mm 6 mps 750 mmHg 63%
    13:00 +8°C° 0 mm 7 mps 750 mmHg 59%
    14:00 +6°C° 0 mm 7 mps 750 mmHg 58%
    15:00 +6°C° 0 mm 7 mps 750 mmHg 57%
    16:00 +5°C° 0 mm 7 mps 750 mmHg 55%
    17:00 +4°C° 0 mm 6 mps 751 mmHg 57%
    18:00 +4°C° 0 mm 6 mps 752 mmHg 59%
    19:00 +3°C° 0 mm 6 mps 752 mmHg 61%
    20:00 +3°C° 0 mm 6 mps 753 mmHg 62%
    21:00 +2°C° 0 mm 6 mps 753 mmHg 63%
    22:00 +2°C° 0 mm 6 mps 754 mmHg 65%
    23:00 +2°C° 0 mm 5 mps 754 mmHg 66%

    25 November, Monday

    Time Temperature Precipitation Wind Pressure Humidity
    00:00 +1°C° 0 mm 5 mps 754 mmHg 67%
    01:00 +1°C° 0 mm 5 mps 754 mmHg 68%
    02:00 +1°C° 0 mm 5 mps 755 mmHg 70%
    03:00 +1°C° 0 mm 4 mps 755 mmHg 71%
    04:00 +2°C° 0 mm 3 mps 755 mmHg 73%
    05:00 +1°C° 0 mm 4 mps 756 mmHg 73%
    06:00 +1°C° 0 mm 4 mps 756 mmHg 74%
    07:00 +1°C° 0 mm 4 mps 757 mmHg 74%
    08:00 +3°C° 0 mm 4 mps 757 mmHg 69%
    09:00 +4°C° 0 mm 4 mps 757 mmHg 65%
    10:00 +5°C° 0 mm 4 mps 758 mmHg 60%
    11:00 +6°C° 0 mm 4 mps 758 mmHg 57%
    12:00 +7°C° 0 mm 4 mps 757 mmHg 55%
    13:00 +9°C° 0 mm 3 mps 757 mmHg 53%
    14:00 +9°C° 0 mm 3 mps 757 mmHg 54%
    15:00 +9°C° 0 mm 2 mps 758 mmHg 56%
    16:00 +9°C° 0 mm 2 mps 758 mmHg 57%
    17:00 +8°C° 0 mm 2 mps 758 mmHg 61%
    18:00 +7°C° 0 mm 2 mps 759 mmHg 64%
    19:00 +6°C° 0 mm 2 mps 759 mmHg 68%
    20:00 +6°C° 0 mm 2 mps 760 mmHg 71%
    21:00 +6°C° 0 mm 2 mps 760 mmHg 74%
    22:00 +6°C° 0 mm 2 mps 760 mmHg 77%
    23:00 +5°C° 0 mm 2 mps 760 mmHg 78%

    26 November, Tuesday

    Time Temperature Precipitation Wind Pressure Humidity
    00:00 +5°C° 0 mm 2 mps 760 mmHg 80%
    01:00 +5°C° 0 mm 2 mps 760 mmHg 82%
    02:00 +5°C° 0 mm 2 mps 761 mmHg 83%
    03:00 +5°C° 0 mm 2 mps 761 mmHg 83%
    04:00 +6°C° 0 mm 1 mps 761 mmHg 84%
    05:00 +6°C° 0 mm 1 mps 762 mmHg 85%
    06:00 +5°C° 0 mm 1 mps 762 mmHg 86%
    07:00 +5°C° 0 mm 1 mps 762 mmHg 86%
    08:00 +5°C° 0 mm 2 mps 763 mmHg 82%
    09:00 +7°C° 0 mm 2 mps 763 mmHg 77%
    10:00 +8°C° 0 mm 3 mps 763 mmHg 72%
    11:00 +9°C° 0 mm 3 mps 763 mmHg 68%
    12:00 +10°C° 0 mm 3 mps 763 mmHg 65%
    13:00 +11°C° 0 mm 3 mps 762 mmHg 61%
    14:00 +11°C° 0 mm 3 mps 762 mmHg 64%
    15:00 +11°C° 0 mm 4 mps 762 mmHg 66%
    16:00 +11°C° 0 mm 4 mps 762 mmHg 68%
    17:00 +10°C° 0 mm 4 mps 763 mmHg 71%
    18:00 +8°C° 0 mm 4 mps 763 mmHg 74%
    19:00 +8°C° 0 mm 4 mps 763 mmHg 76%
    20:00 +8°C° 0 mm 4 mps 763 mmHg 79%
    21:00 +8°C° 0 mm 4 mps 763 mmHg 82%
    22:00 +8°C° 0 mm 4 mps 763 mmHg 84%
    23:00 +8°C° 0 mm 4 mps 763 mmHg 87%
    Show more